Weather History for KVAY - October, 2013

Change the Weather History Date:

Thursday, October 3, 2013

  Actual Average (KWRI) Record (KWRI)
Temperature  
Mean Temperature 68 °F -  
Max Temperature 81 °F 68 °F 87 °F (2001)
Min Temperature 55 °F 47 °F 35 °F (2003)
Cooling Degree Days 2    
Growing Degree Days 18 (Base 50)    
Moisture  
Dew Point 57 °F    
Average Humidity 80    
Maximum Humidity 100    
Minimum Humidity 46    
Precipitation  
Precipitation 0.00 in - - ()
Sea Level Pressure  
Sea Level Pressure 30.08 in    
Wind  
Wind Speed 0 mph (North)    
Max Wind Speed 6 mph    
Max Gust Speed -    
Visibility 6 miles    
Events      
Averages and records for this station are not official NWS values.
T = Trace of Precipitation, MM = Missing Value Source: NWS Daily Summary

Daily Weather History Graph

Daily Weather History Graph

Search for Another Location

Airport or City:

Trip Planner

Search our weather history database for the weather conditions in past years. The results will help you decide how hot, cold, wet, or windy it might be!

Date:

Astronomy

Oct. 03, 2013 Rise Set
Actual Time 6:57 AM EDT 6:38 PM EDT
Civil Twilight 6:30 AM EDT 7:05 PM EDT
Nautical Twilight 5:59 AM EDT 7:36 PM EDT
Astronomical Twilight 5:27 AM EDT 8:07 PM EDT
Moon 5:28 AM EDT (10/3) 5:45 PM EDT (10/3)
Length of Visible Light 12h 34m
Length of Day
11h 40m
Waning Crescent, 2% of the Moon is Illuminated
Oct 3
Waning Crescent
Oct 4
New
Oct 11
First Quarter
Oct 18
Full
Oct 26
Last Quarter

Hourly Weather History & Observations

Time (EDT) Temp. Heat Index Dew Point Humidity Pressure Visibility Wind Dir Wind Speed Gust Speed Precip Events Conditions
12:54 AM 66.0 °F - 61.0 °F 84% 30.04 in 10.0 mi Calm Calm - N/A   Clear
1:54 AM 62.1 °F - 60.1 °F 93% 30.05 in 6.0 mi Calm Calm - N/A   Clear
2:54 AM 61.0 °F - 59.0 °F 93% 30.05 in 3.0 mi Calm Calm - N/A   Clear
3:28 AM 60.8 °F - 59.0 °F 94% 30.06 in 1.8 mi Calm Calm - N/A   Clear
3:47 AM 60.8 °F - 57.2 °F 88% 30.06 in 3.0 mi Calm Calm - N/A   Clear
3:54 AM 60.1 °F - 57.9 °F 93% 30.06 in 4.0 mi Calm Calm - N/A   Clear
3:58 AM 60.8 °F - 57.2 °F 88% 30.06 in 1.2 mi Calm Calm - N/A   Clear
4:02 AM 59.0 °F - 57.2 °F 94% 30.06 in 0.8 mi Calm Calm - N/A   Clear
4:12 AM 59.0 °F - 57.2 °F 94% 30.06 in 1.2 mi Calm Calm - N/A   Clear
4:25 AM 59.0 °F - 57.2 °F 94% 30.06 in 0.8 mi Calm Calm - N/A   Clear
4:41 AM 57.2 °F - 57.2 °F 100% 30.07 in 2.0 mi Calm Calm - N/A   Clear
4:54 AM 57.9 °F - 57.0 °F 97% 30.07 in 2.0 mi Calm Calm - N/A   Clear
5:19 AM 57.2 °F - 55.4 °F 94% 30.07 in 4.0 mi Calm Calm - N/A   Clear
5:42 AM 57.2 °F - 55.4 °F 94% 30.08 in 2.5 mi Calm Calm - N/A   Clear
5:54 AM 57.9 °F - 55.9 °F 93% 30.08 in 2.0 mi Calm Calm - N/A   Clear
6:10 AM 57.2 °F - 55.4 °F 94% 30.09 in 1.5 mi Calm Calm - N/A   Clear
6:19 AM 57.2 °F - 55.4 °F 94% 30.09 in 3.0 mi Calm Calm - N/A   Clear
6:50 AM 57.2 °F - 55.4 °F 94% 30.09 in 2.0 mi Calm Calm - N/A   Clear
6:54 AM 55.9 °F - 55.0 °F 97% 30.09 in 2.0 mi Calm Calm - N/A   Clear
7:23 AM 57.2 °F - 55.4 °F 94% 30.10 in 2.0 mi Calm Calm - N/A   Clear
7:30 AM 57.2 °F - 55.4 °F 94% 30.10 in 5.0 mi Calm Calm - N/A   Clear
7:54 AM 59.0 °F - 57.0 °F 93% 30.12 in 6.0 mi Calm Calm - N/A   Clear
8:54 AM 66.9 °F - 61.0 °F 81% 30.12 in 8.0 mi Calm Calm - N/A   Clear
9:54 AM 72.0 °F - 59.0 °F 64% 30.13 in 10.0 mi NNE 4.6 mph - N/A   Clear
10:54 AM 73.9 °F - 57.0 °F 55% 30.12 in 10.0 mi North 4.6 mph - N/A   Clear
11:54 AM 73.9 °F - 55.9 °F 53% 30.12 in 10.0 mi Calm Calm - N/A   Clear
12:54 PM 77.0 °F - 55.0 °F 47% 30.10 in 10.0 mi Calm Calm - N/A   Clear
1:54 PM 78.1 °F - 55.9 °F 46% 30.08 in 10.0 mi West 5.8 mph - N/A   Clear
2:54 PM 79.0 °F - 57.9 °F 48% 30.06 in 10.0 mi Calm Calm - N/A   Clear
3:54 PM 80.1 °F 80.7 °F 59.0 °F 48% 30.05 in 10.0 mi Calm Calm - N/A   Clear
4:54 PM 78.1 °F - 61.0 °F 56% 30.05 in 10.0 mi Calm Calm - N/A   Clear
5:54 PM 75.0 °F - 62.1 °F 64% 30.05 in 8.0 mi SSE 3.5 mph - N/A   Clear
7:54 PM 69.1 °F - 57.0 °F 65% 30.06 in 10.0 mi Calm Calm - N/A   Clear
8:54 PM 68.0 °F - 55.0 °F 63% 30.07 in 10.0 mi Calm Calm - N/A   Clear
9:54 PM 66.0 °F - 57.0 °F 73% 30.08 in 10.0 mi Calm Calm - N/A   Clear
10:54 PM 63.0 °F - 57.0 °F 81% 30.09 in 10.0 mi Calm Calm - N/A   Clear